KB6LA Weather Reports


time (UTC)temp
C
wind
direction
speed
KPH
gust
KPH
rain 1hr
cm
rain 24hr
cm
rain mn
cm
humidity
%
barometer
mb
20260510220653 19 215 9.7 17.7 0.00 0.00 0.00 76 1012.4
20260510220144 18 262 8.0 17.7 0.00 0.00 0.00 76 1012.4
20260510215637 18 248 11.3 22.5 0.00 0.00 0.00 77 1012.4
20260510215130 18 247 6.4 22.5 0.00 0.00 0.00 77 1012.4
20260510214622 18 252 9.7 22.5 0.00 0.00 0.00 77 1012.4
20260510214115 18 233 17.7 25.7 0.00 0.00 0.00 77 1012.4
20260510213606 19 224 19.3 25.7 0.00 0.00 0.00 75 1012.4
20260510213059 19 215 12.9 17.7 0.00 0.00 0.00 74 1012.4
20260510212551 18 224 9.7 22.5 0.00 0.00 0.00 76 1012.4
20260510212044 19 316 9.7 22.5 0.00 0.00 0.00 76 1012.4
20260510211029 19 207 6.4 17.7 0.00 0.00 0.00 75 1012.8
20260510210521 20 234 8.0 20.9 0.00 0.00 0.00 74 1012.4
20260510204958 19 275 8.0 20.9 0.00 0.00 0.00 75 1012.8
20260510204451 18 252 9.7 20.9 0.00 0.00 0.00 77 1012.8
20260510203943 19 204 17.7 20.9 0.00 0.00 0.00 76 1012.8
20260510203436 18 242 11.3 20.9 0.00 0.00 0.00 77 1012.8
20260510202928 18 216 11.3 20.9 0.00 0.00 0.00 77 1012.8
20260510202420 18 276 16.1 22.5 0.00 0.00 0.00 76 1012.8
20260510201913 19 238 14.5 22.5 0.00 0.00 0.00 76 1012.8
20260510200857 19 250 12.9 20.9 0.00 0.00 0.00 75 1012.8
20260510195842 19 227 14.5 17.7 0.00 0.00 0.00 75 1012.8
20260510195334 19 240 9.7 20.9 0.00 0.00 0.00 76 1012.8
20260510194827 19 237 11.3 20.9 0.00 0.00 0.00 75 1012.8
20260510194320 19 256 6.4 20.9 0.00 0.00 0.00 75 1012.8
20260510193304 19 225 14.5 20.9 0.00 0.00 0.00 74 1012.8
20260510192756 19 201 9.7 22.5 0.00 0.00 0.00 74 1012.8
20260510192250 19 233 9.7 22.5 0.00 0.00 0.00 74 1012.8
20260510191741 19 222 9.7 16.1 0.00 0.00 0.00 75 1012.8
20260510191234 20 180 11.3 16.1 0.00 0.00 0.00 71 1012.8
20260510190219 19 252 12.9 17.7 0.00 0.00 0.00 74 1012.8
20260510185711 19 254 9.7 17.7 0.00 0.00 0.00 74 1012.8
20260510185203 20 222 14.5 20.9 0.00 0.00 0.00 72 1012.8
20260510184655 19 260 8.0 20.9 0.00 0.00 0.00 73 1013.1
20260510184148 19 140 9.7 16.1 0.00 0.00 0.00 75 1013.1
20260510183640 20 230 12.9 17.7 0.00 0.00 0.00 73 1013.1
20260510182625 20 205 12.9 17.7 0.00 0.00 0.00 73 1012.8
20260510182118 20 198 4.8 16.1 0.00 0.00 0.00 73 1012.8
20260510181610 20 234 9.7 14.5 0.00 0.00 0.00 71 1012.4
20260510181103 20 310 3.2 12.9 0.00 0.00 0.00 71 1012.8
20260510180554 20 246 6.4 16.1 0.00 0.00 0.00 71 1012.8
20260510180047 20 199 6.4 16.1 0.00 0.00 0.00 72 1012.4
20260510175540 20 210 12.9 14.5 0.00 0.00 0.00 70 1012.4
20260510175032 20 283 6.4 11.3 0.00 0.00 0.00 72 1012.4
20260510174525 20 260 3.2 11.3 0.00 0.00 0.00 71 1012.4
20260510173510 20 204 3.2 6.4 0.00 0.00 0.00 72 1012.4
20260510173001 20 76 1.6 6.4 0.00 0.00 0.00 72 1012.8
20260510172454 19 133 3.2 9.7 0.00 0.00 0.00 74 1012.4
20260510171439 19 91 4.8 9.7 0.00 0.00 0.00 75 1012.4
20260510170931 19 203 1.6 11.3 0.00 0.00 0.00 75 1012.4
20260510170424 20 209 4.8 11.3 0.00 0.00 0.00 74 1012.4
20260510165916 18 328 1.6 4.8 0.00 0.00 0.00 76 1012.4
20260510165409 18 225 3.2 6.4 0.00 0.00 0.00 78 1012.8
20260510164354 17 232 3.2 11.3 0.00 0.00 0.00 80 1012.4
20260510162831 18 237 6.4 6.4 0.00 0.00 0.00 77 1012.8
20260510162323 18 311 0.0 3.2 0.00 0.00 0.00 79 1012.4
20260510161815 18 264 3.2 6.4 0.00 0.00 0.00 79 1012.4
20260510161307 18 199 3.2 6.4 0.00 0.00 0.00 78 1012.4
20260510160800 17 300 0.0 4.8 0.00 0.00 0.00 82 1012.4
20260510160252 17 115 3.2 6.4 0.00 0.00 0.00 82 1012.4
20260510155745 17 176 3.2 6.4 0.00 0.00 0.00 83 1012.4
20260510155237 17 119 3.2 4.8 0.00 0.00 0.00 82 1012.4
20260510154730 17 102 3.2 6.4 0.00 0.00 0.00 83 1012.4
20260510152700 16 266 1.6 4.8 0.00 0.00 0.00 85 1012.4
20260510151644 16 261 0.0 3.2 0.00 0.00 0.00 85 1012.4
20260510151136 16 212 1.6 3.2 0.00 0.00 0.00 86 1012.4
20260510150629 16 252 0.0 3.2 0.00 0.00 0.00 86 1012.4
20260510150121 16 312 0.0 3.2 0.00 0.00 0.00 87 1012.4
20260510145614 16 325 1.6 3.2 0.00 0.00 0.00 88 1012.4
20260510145106 16 298 0.0 3.2 0.00 0.00 0.00 88 1012.1
20260510144559 16 274 0.0 3.2 0.00 0.00 0.00 88 1012.4
20260510144052 16 235 1.6 4.8 0.00 0.00 0.00 89 1012.4
20260510143543 16 242 3.2 4.8 0.00 0.00 0.00 89 1012.4
20260510143037 16 139 4.8 4.8 0.00 0.00 0.00 89 1012.4
20260510142528 15 189 1.6 4.8 0.00 0.00 0.00 89 1012.1
20260510141513 15 48 1.6 4.8 0.00 0.00 0.00 90 1012.1
20260510140458 15 2 1.6 6.4 0.00 0.00 0.00 90 1012.1
20260510135952 15 29 3.2 6.4 0.00 0.00 0.00 90 1011.8
20260510135443 15 5 3.2 9.7 0.00 0.00 0.00 90 1011.8
20260510134935 15 347 1.6 9.7 0.00 0.00 0.00 90 1011.8
20260510133920 15 327 3.2 9.7 0.00 0.00 0.00 91 1011.8
20260510133412 15 318 3.2 4.8 0.00 0.00 0.00 91 1011.8
20260510132904 15 6 3.2 4.8 0.00 0.00 0.00 91 1011.8
20260510132357 15 13 3.2 4.8 0.00 0.00 0.00 91 1011.8
20260510131851 15 10 1.6 3.2 0.00 0.00 0.00 91 1011.8
20260510131341 15 334 1.6 1.6 0.00 0.00 0.00 91 1011.8
20260510130327 15 296 0.0 3.2 0.00 0.00 0.00 92 1011.8
20260510125819 15 334 0.0 3.2 0.00 0.00 0.00 92 1011.8
20260510125312 15 26 1.6 4.8 0.00 0.00 0.00 92 1011.4
20260510124804 15 359 1.6 4.8 0.00 0.00 0.00 92 1011.8
20260510124257 15 343 0.0 6.4 0.00 0.00 0.00 93 1011.8
20260510123749 15 344 1.6 6.4 0.00 0.00 0.00 93 1011.8
20260510123242 15 351 1.6 3.2 0.00 0.00 0.00 93 1011.8
20260510122226 15 323 0.0 1.6 0.00 0.00 0.00 93 1011.8
20260510121718 15 327 1.6 1.6 0.00 0.00 0.00 94 1011.8
20260510121210 15 326 0.0 1.6 0.00 0.00 0.00 94 1011.8
20260510120703 15 326 0.0 3.2 0.00 0.00 0.00 94 1011.8
20260510120155 15 310 0.0 3.2 0.00 0.00 0.00 94 1011.8
20260510115140 15 331 0.0 3.2 0.00 0.00 0.00 94 1011.8
20260510114632 15 2 1.6 3.2 0.00 0.00 0.00 94 1011.8
20260510114125 15 264 0.0 3.2 0.00 0.00 0.00 94 1011.8
20260510113617 15 287 0.0 3.2 0.00 0.00 0.00 94 1011.8
20260510113110 14 345 0.0 4.8 0.00 0.00 0.00 94 1011.8
20260510112601 14 0 0.0 9.7 0.00 0.00 0.00 95 1011.8
20260510112054 14 16 0.0 9.7 0.00 0.00 0.00 95 1011.8
20260510111547 14 345 0.0 4.8 0.00 0.00 0.00 95 1011.8
20260510111039 14 358 0.0 4.8 0.00 0.00 0.00 95 1011.4
20260510110532 14 20 1.6 4.8 0.00 0.00 0.00 95 1011.8
20260510110024 14 9 1.6 3.2 0.00 0.00 0.00 95 1011.4
20260510105516 14 290 0.0 3.2 0.00 0.00 0.00 95 1011.8
20260510105008 14 9 0.0 3.2 0.00 0.00 0.00 95 1011.8
20260510103953 14 56 6.4 6.4 0.00 0.00 0.00 95 1011.8
20260510102938 14 117 4.8 9.7 0.00 0.00 0.00 95 1011.8
20260510102431 14 20 1.6 6.4 0.00 0.00 0.00 95 1011.8
20260510101923 14 4 3.2 4.8 0.00 0.00 0.00 95 1011.8
20260510101416 14 152 1.6 4.8 0.00 0.00 0.00 95 1011.8
20260510100401 14 118 3.2 4.8 0.00 0.00 0.00 95 1011.8
20260510095853 14 1 1.6 4.8 0.00 0.00 0.00 94 1011.8
20260510094837 14 307 0.0 3.2 0.00 0.00 0.00 94 1011.8
20260510094330 14 318 0.0 3.2 0.00 0.00 0.00 94 1012.1
20260510093822 14 299 0.0 3.2 0.00 0.00 0.00 94 1011.8
20260510093314 14 72 1.6 3.2 0.00 0.00 0.00 94 1011.8
20260510092807 14 343 0.0 4.8 0.00 0.00 0.00 94 1011.8
20260510092300 14 11 1.6 4.8 0.00 0.00 0.00 94 1011.8
20260510091752 14 49 3.2 4.8 0.00 0.00 0.00 94 1011.8
20260510091244 14 254 0.0 6.4 0.00 0.00 0.00 94 1011.8
20260510090737 14 173 1.6 6.4 0.00 0.00 0.00 94 1011.8
20260510090229 14 158 4.8 6.4 0.00 0.00 0.00 94 1011.8
20260510085722 14 194 4.8 6.4 0.00 0.00 0.00 94 1011.8
20260510085214 14 209 1.6 6.4 0.00 0.00 0.00 94 1011.8
20260510084159 14 223 1.6 6.4 0.00 0.00 0.00 94 1011.8
20260510083651 14 207 0.0 4.8 0.00 0.00 0.00 94 1011.8
20260510083143 14 258 1.6 6.4 0.00 0.00 0.00 94 1011.8
20260510082636 14 196 4.8 6.4 0.00 0.00 0.00 94 1011.8
20260510082128 14 257 1.6 3.2 0.00 0.00 0.00 94 1011.8
20260510081621 14 196 3.2 3.2 0.00 0.00 0.00 94 1012.1
20260510081113 14 191 3.2 4.8 0.00 0.00 0.00 94 1011.8
20260510080606 14 212 1.6 4.8 0.00 0.00 0.00 94 1012.1
20260510080058 14 222 3.2 4.8 0.00 0.00 0.00 94 1012.1
20260510075043 14 241 1.6 4.8 0.00 0.00 0.00 94 1012.1
20260510074536 14 233 3.2 4.8 0.00 0.00 0.00 94 1012.4
20260510074027 14 265 3.2 4.8 0.00 0.00 0.00 93 1012.4
20260510072505 14 262 0.0 4.8 0.00 0.00 0.00 94 1012.4
20260510071450 14 246 1.6 6.4 0.00 0.00 0.00 94 1012.1
20260510070434 14 199 3.2 6.4 0.00 0.00 0.00 94 1012.1
20260510065927 14 252 1.6 6.4 0.00 0.00 0.00 94 1012.4
20260510065419 14 90 1.6 6.4 0.00 0.00 0.00 94 1012.4
20260510064911 14 114 6.4 6.4 0.00 0.00 0.00 94 1012.1
20260510064403 14 333 0.0 3.2 0.00 0.00 0.00 94 1012.4
20260510063856 14 91 1.6 3.2 0.00 0.00 0.00 94 1012.1
20260510063348 14 235 1.6 3.2 0.00 0.00 0.00 94 1012.1
20260510062841 14 265 1.6 3.2 0.00 0.00 0.00 94 1012.1
20260510062333 14 260 1.6 4.8 0.00 0.00 0.00 94 1012.1
20260510061826 14 283 0.0 4.8 0.00 0.00 0.00 95 1012.1
20260510060811 14 246 0.0 3.2 0.00 0.00 0.00 95 1012.1
20260510060303 14 248 1.6 3.2 0.00 0.00 0.00 95 1012.1
20260510055755 14 208 1.6 3.2 0.00 0.00 0.00 95 1012.1
20260510055248 14 201 3.2 3.2 0.00 0.00 0.00 95 1012.4
20260510054740 14 238 1.6 3.2 0.00 0.00 0.00 95 1012.4
20260510054233 14 272 1.6 3.2 0.00 0.00 0.00 95 1012.4
20260510053726 14 247 0.0 1.6 0.00 0.00 0.00 95 1012.4
20260510052202 14 264 0.0 1.6 0.00 0.00 0.00 95 1012.4
20260510051655 14 281 0.0 1.6 0.00 0.00 0.00 95 1012.4
20260510051147 14 324 0.0 3.2 0.00 0.00 0.00 95 1012.4
20260510050639 14 262 0.0 4.8 0.00 0.00 0.00 95 1012.4
20260510045624 14 199 3.2 4.8 0.00 0.00 0.00 95 1012.4
20260510045117 14 227 1.6 4.8 0.00 0.00 0.00 94 1012.4
20260510044101 14 219 3.2 4.8 0.00 0.00 0.00 95 1012.1
20260510043553 14 225 1.6 4.8 0.00 0.00 0.00 95 1012.1
20260510043046 14 262 1.6 4.8 0.00 0.00 0.00 94 1012.1
20260510042031 14 352 0.0 6.4 0.00 0.00 0.00 94 1012.1
20260510041524 13 267 0.0 6.4 0.00 0.00 0.00 94 1012.1
20260510035452 14 214 3.2 6.4 0.00 0.00 0.00 94 1012.1
20260510034946 14 201 3.2 9.7 0.00 0.00 0.00 94 1011.8
20260510034438 14 232 4.8 9.7 0.00 0.00 0.00 94 1011.8
20260510033930 14 231 4.8 9.7 0.00 0.00 0.00 94 1011.8
20260510033422 14 221 6.4 9.7 0.00 0.00 0.00 93 1011.8
20260510032915 14 278 4.8 6.4 0.00 0.00 0.00 94 1011.8
20260510032408 14 246 0.0 6.4 0.00 0.00 0.00 93 1011.8
20260510031353 14 254 1.6 11.3 0.00 0.00 0.00 93 1011.4
20260510030845 14 230 8.0 11.3 0.00 0.00 0.00 93 1011.4
20260510030337 14 258 4.8 9.7 0.00 0.00 0.00 93 1011.4
20260510025829 14 238 6.4 9.7 0.00 0.00 0.00 93 1011.4
20260510025322 15 285 6.4 6.4 0.00 0.00 0.00 93 1011.1
20260510024814 14 273 0.0 9.7 0.00 0.00 0.00 93 1011.1
20260510024307 14 279 3.2 11.3 0.00 0.00 0.00 93 1011.1
20260510023800 14 244 6.4 12.9 0.00 0.00 0.00 92 1011.1
20260510023251 15 229 6.4 12.9 0.00 0.00 0.00 92 1011.1
20260510022744 15 267 4.8 11.3 0.00 0.00 0.00 92 1011.1
20260510022236 15 237 4.8 11.3 0.00 0.00 0.00 92 1011.1
20260510021729 15 258 6.4 11.3 0.00 0.00 0.00 92 1011.1
20260510021221 15 236 9.7 14.5 0.00 0.00 0.00 92 1011.1
20260510020713 15 232 6.4 14.5 0.00 0.00 0.00 91 1010.7
20260510020206 15 232 4.8 12.9 0.00 0.00 0.00 91 1010.7
20260510015658 15 262 6.4 12.9 0.00 0.00 0.00 91 1010.7
20260510015151 15 205 11.3 16.1 0.00 0.00 0.00 91 1010.7
20260510014135 15 230 9.7 16.1 0.00 0.00 0.00 91 1010.7
20260510013628 15 247 12.9 16.1 0.00 0.00 0.00 90 1010.7
20260510013120 15 294 6.4 14.5 0.00 0.00 0.00 90 1010.7
20260510012613 15 216 6.4 14.5 0.00 0.00 0.00 89 1010.7
20260510012105 15 272 6.4 14.5 0.00 0.00 0.00 89 1010.7
20260510011558 15 278 9.7 16.1 0.00 0.00 0.00 89 1010.7
20260510011050 15 259 9.7 16.1 0.00 0.00 0.00 89 1010.7
20260510010542 15 247 11.3 16.1 0.00 0.00 0.00 89 1010.7
20260510010035 15 218 12.9 16.1 0.00 0.00 0.00 88 1010.7
20260510005527 16 245 9.7 14.5 0.00 0.00 0.00 88 1010.7
20260510005019 16 258 6.4 16.1 0.00 0.00 0.00 89 1010.7
20260510004512 16 239 6.4 22.5 0.00 0.00 0.00 88 1010.7
20260510004004 16 222 6.4 22.5 0.00 0.00 0.00 88 1010.7
20260510003458 16 256 14.5 20.9 0.00 0.00 0.00 86 1010.7
20260510002950 16 195 12.9 22.5 0.00 0.00 0.00 87 1010.7
20260510002441 16 238 16.1 22.5 0.00 0.00 0.00 86 1010.7
20260510001934 16 240 16.1 17.7 0.00 0.00 0.00 85 1010.7
20260510001426 16 222 4.8 17.7 0.00 0.00 0.00 86 1010.7
20260510000918 16 230 9.7 20.9 0.00 0.00 0.00 85 1010.7
20260510000411 16 221 11.3 20.9 0.00 0.00 0.00 86 1010.7
20260509235903 16 256 14.5 22.5 0.00 0.00 0.00 84 1010.7
20260509235356 17 192 12.9 22.5 0.00 0.00 0.00 83 1010.7
20260509234849 17 268 11.3 22.5 0.00 0.00 0.00 83 1010.7
20260509234340 17 250 11.3 22.5 0.00 0.00 0.00 82 1010.7
20260509232818 18 235 9.7 22.5 0.00 0.00 0.00 80 1010.7
20260509232310 17 216 8.0 22.5 0.00 0.00 0.00 80 1010.7
20260509231803 18 220 16.1 20.9 0.00 0.00 0.00 78 1010.7
20260509231255 18 231 11.3 20.9 0.00 0.00 0.00 78 1010.7
20260509230747 18 248 12.9 20.9 0.00 0.00 0.00 79 1010.7
20260509230240 18 202 17.7 20.9 0.00 0.00 0.00 79 1010.7
20260509225732 18 263 12.9 20.9 0.00 0.00 0.00 78 1010.7
20260509224716 19 212 9.7 17.7 0.00 0.00 0.00 76 1011.1
20260509224209 19 274 8.0 16.1 0.00 0.00 0.00 75 1011.1
20260509223154 18 212 12.9 24.1 0.00 0.00 0.00 78 1011.1
20260509221631 19 239 14.5 24.1 0.00 0.00 0.00 76 1011.1